SKY0014 LTFG-LTDA

Flight info

Callsign SKY0014
Flight time N/A
Altitude 5500
Route 3618N03219E 3606N03231E DCT 3605N03252E 3605N03337E 3558N03525E 3606N03560E
Aircraft DC3/M-SDF/S

Departure

Time N/A
Airport Gazipaşa-Alanya Airport (LTFG)

Arrival

Time 2026-05-06 20:44
Airport Hatay Airport (LTDA)
Time Latitude Longitude Altitude Speed Heading
2026-05-06 19:56 36.04025 34.36239 5472 ft 172 kts 92°
2026-05-06 19:56 36.03920 34.37716 5476 ft 171 kts 93°
2026-05-06 19:56 36.03820 34.39171 5472 ft 172 kts 92°
2026-05-06 19:56 36.03719 34.40648 5475 ft 171 kts 92°
2026-05-06 19:57 36.03620 34.42107 5474 ft 172 kts 92°
2026-05-06 19:57 36.03521 34.43581 5473 ft 172 kts 92°
2026-05-06 19:57 36.03421 34.45061 5473 ft 172 kts 92°
2026-05-06 19:57 36.03322 34.46527 5472 ft 172 kts 92°
2026-05-06 19:58 36.03223 34.47993 5474 ft 172 kts 93°
2026-05-06 19:58 36.03117 34.49475 5474 ft 173 kts 92°
2026-05-06 19:58 36.03014 34.50960 5473 ft 173 kts 92°
2026-05-06 19:58 36.02913 34.52425 5473 ft 172 kts 92°
2026-05-06 19:59 36.02811 34.53913 5474 ft 172 kts 92°
2026-05-06 19:59 36.02711 34.55371 5475 ft 172 kts 93°
2026-05-06 19:59 36.02610 34.56852 5474 ft 172 kts 93°
2026-05-06 19:59 36.02509 34.58323 5472 ft 172 kts 92°
2026-05-06 20:00 36.02409 34.59784 5474 ft 172 kts 93°
2026-05-06 20:00 36.02301 34.61256 5477 ft 172 kts 93°
2026-05-06 20:00 36.02197 34.62729 5476 ft 172 kts 93°
2026-05-06 20:00 36.02094 34.64191 5475 ft 172 kts 92°
2026-05-06 20:01 36.01992 34.65683 5475 ft 173 kts 93°
2026-05-06 20:01 36.01890 34.67151 5475 ft 173 kts 93°
2026-05-06 20:01 36.01786 34.68637 5475 ft 173 kts 94°
2026-05-06 20:01 36.01685 34.70104 5474 ft 173 kts 93°
2026-05-06 20:02 36.01581 34.71593 5473 ft 173 kts 94°
2026-05-06 20:02 36.01473 34.73066 5473 ft 173 kts 94°
2026-05-06 20:02 36.01366 34.74548 5476 ft 172 kts 94°
2026-05-06 20:02 36.01263 34.76009 5475 ft 172 kts 93°
2026-05-06 20:03 36.01158 34.77486 5475 ft 172 kts 94°
2026-05-06 20:03 36.01053 34.78970 5474 ft 172 kts 94°
2026-05-06 20:03 36.00950 34.80431 5474 ft 172 kts 93°
2026-05-06 20:03 36.00845 34.81913 5474 ft 173 kts 93°
2026-05-06 20:04 36.00743 34.83380 5473 ft 173 kts 94°
2026-05-06 20:04 36.00632 34.84872 5473 ft 173 kts 94°
2026-05-06 20:04 36.00525 34.86341 5473 ft 173 kts 94°
2026-05-06 20:04 36.00418 34.87828 5474 ft 173 kts 94°
2026-05-06 20:05 36.00312 34.89311 5473 ft 173 kts 93°
2026-05-06 20:05 36.00206 34.90778 5475 ft 173 kts 94°
2026-05-06 20:05 36.00100 34.92261 5477 ft 173 kts 94°
2026-05-06 20:05 35.99995 34.93727 5476 ft 173 kts 94°
2026-05-06 20:06 35.99889 34.95219 5473 ft 173 kts 94°
2026-05-06 20:06 35.99780 34.96684 5473 ft 173 kts 94°
2026-05-06 20:06 35.99670 34.98170 5474 ft 173 kts 94°
2026-05-06 20:06 35.99562 34.99632 5475 ft 173 kts 94°
2026-05-06 20:07 35.99454 35.01120 5474 ft 173 kts 94°
2026-05-06 20:07 35.99348 35.02586 5474 ft 173 kts 94°
2026-05-06 20:07 35.99240 35.04072 5475 ft 173 kts 94°
2026-05-06 20:07 35.99134 35.05539 5475 ft 173 kts 94°
2026-05-06 20:08 35.99025 35.07036 5476 ft 173 kts 94°
2026-05-06 20:08 35.98912 35.08507 5480 ft 174 kts 94°
2026-05-06 20:08 35.98801 35.10001 5481 ft 174 kts 94°
2026-05-06 20:08 35.98693 35.11470 5481 ft 174 kts 94°
2026-05-06 20:09 35.98582 35.12972 5481 ft 174 kts 94°
2026-05-06 20:09 35.98473 35.14445 5481 ft 174 kts 94°
2026-05-06 20:09 35.98363 35.15937 5480 ft 174 kts 94°
2026-05-06 20:09 35.98255 35.17410 5480 ft 174 kts 94°
2026-05-06 20:10 35.98147 35.18887 5480 ft 173 kts 94°
2026-05-06 20:10 35.98032 35.20379 5481 ft 173 kts 94°
2026-05-06 20:10 35.97921 35.21851 5482 ft 173 kts 94°
2026-05-06 20:10 35.97807 35.23345 5478 ft 174 kts 94°
2026-05-06 20:11 35.97697 35.24818 5479 ft 174 kts 94°
2026-05-06 20:11 35.97586 35.26311 5483 ft 174 kts 94°
2026-05-06 20:11 35.97477 35.27787 5487 ft 174 kts 94°
2026-05-06 20:11 35.97365 35.29283 5487 ft 174 kts 94°
2026-05-06 20:12 35.97254 35.30769 5486 ft 174 kts 94°
2026-05-06 20:12 35.97138 35.32267 5487 ft 174 kts 94°
2026-05-06 20:12 35.97024 35.33750 5489 ft 174 kts 94°
2026-05-06 20:12 35.96912 35.35234 5491 ft 174 kts 94°
2026-05-06 20:13 35.96798 35.36734 5489 ft 174 kts 94°
2026-05-06 20:13 35.96685 35.38213 5489 ft 174 kts 94°
2026-05-06 20:13 35.96572 35.39714 5487 ft 174 kts 94°
2026-05-06 20:13 35.96516 35.41193 5465 ft 174 kts 78°
2026-05-06 20:14 35.96821 35.42609 5493 ft 171 kts 73°
2026-05-06 20:14 35.97132 35.44040 5490 ft 172 kts 73°
2026-05-06 20:14 35.97443 35.45459 5491 ft 172 kts 73°
2026-05-06 20:14 35.97755 35.46880 5491 ft 173 kts 73°
2026-05-06 20:15 35.98074 35.48320 5492 ft 173 kts 73°
2026-05-06 20:15 35.98387 35.49742 5495 ft 173 kts 73°
2026-05-06 20:15 35.98706 35.51188 5495 ft 173 kts 73°
2026-05-06 20:15 35.99025 35.52632 5496 ft 174 kts 73°
2026-05-06 20:16 35.99340 35.54056 5498 ft 174 kts 74°
2026-05-06 20:16 35.99654 35.55507 5497 ft 174 kts 73°
2026-05-06 20:16 35.99970 35.56952 5498 ft 174 kts 73°
2026-05-06 20:16 36.00284 35.58386 5497 ft 174 kts 73°
2026-05-06 20:17 36.00603 35.59840 5500 ft 174 kts 73°
2026-05-06 20:17 36.00919 35.61270 5498 ft 174 kts 73°
2026-05-06 20:17 36.01237 35.62722 5499 ft 174 kts 73°
2026-05-06 20:17 36.01550 35.64146 5500 ft 174 kts 73°
2026-05-06 20:18 36.01867 35.65589 5500 ft 174 kts 74°
2026-05-06 20:18 36.02181 35.67040 5502 ft 174 kts 74°
2026-05-06 20:18 36.02495 35.68481 5502 ft 174 kts 74°
2026-05-06 20:18 36.02806 35.69908 5502 ft 174 kts 74°
2026-05-06 20:19 36.03122 35.71357 5502 ft 174 kts 74°
2026-05-06 20:19 36.03435 35.72787 5501 ft 174 kts 74°
2026-05-06 20:19 36.03754 35.74242 5499 ft 174 kts 74°
2026-05-06 20:19 36.04071 35.75689 5500 ft 174 kts 74°
2026-05-06 20:20 36.04384 35.77120 5504 ft 174 kts 74°
2026-05-06 20:20 36.04696 35.78575 5505 ft 174 kts 74°
2026-05-06 20:20 36.05008 35.80021 5508 ft 174 kts 74°
2026-05-06 20:20 36.05320 35.81457 5509 ft 174 kts 74°
2026-05-06 20:21 36.05634 35.82908 5510 ft 175 kts 74°
2026-05-06 20:21 36.05951 35.84361 5512 ft 175 kts 74°
2026-05-06 20:21 36.06270 35.85822 5513 ft 175 kts 74°
2026-05-06 20:21 36.06583 35.87264 5510 ft 175 kts 74°
2026-05-06 20:22 36.06896 35.88709 5510 ft 175 kts 75°
2026-05-06 20:22 36.07208 35.90168 5510 ft 175 kts 75°
2026-05-06 20:22 36.07523 35.91627 5510 ft 175 kts 74°
2026-05-06 20:22 36.07834 35.93068 5511 ft 175 kts 74°
2026-05-06 20:23 36.08146 35.94513 5511 ft 175 kts 75°
2026-05-06 20:23 36.08464 35.95978 5510 ft 175 kts 75°
2026-05-06 20:23 36.08778 35.97427 5509 ft 175 kts 75°
2026-05-06 20:23 36.09093 35.98886 5509 ft 175 kts 75°
2026-05-06 20:24 36.09716 36.00129 5517 ft 171 kts 51°
2026-05-06 20:24 36.10531 36.01219 5507 ft 172 kts 44°
2026-05-06 20:24 36.11400 36.02236 5508 ft 172 kts 41°
2026-05-06 20:24 36.12289 36.03222 5506 ft 173 kts 41°
2026-05-06 20:25 36.13194 36.04205 5504 ft 173 kts 40°
2026-05-06 20:25 36.14110 36.05190 5505 ft 173 kts 40°
2026-05-06 20:25 36.15024 36.06167 5503 ft 173 kts 40°
2026-05-06 20:25 36.15936 36.07144 5502 ft 173 kts 40°
2026-05-06 20:26 36.16840 36.08112 5500 ft 173 kts 40°
2026-05-06 20:26 36.17748 36.09091 5499 ft 173 kts 40°
2026-05-06 20:26 36.18665 36.10072 5499 ft 173 kts 40°
2026-05-06 20:26 36.19571 36.11044 5500 ft 173 kts 40°
2026-05-06 20:27 36.20481 36.12018 5500 ft 173 kts 40°
2026-05-06 20:27 36.21398 36.12999 5501 ft 173 kts 40°
2026-05-06 20:27 36.22306 36.13973 5500 ft 173 kts 39°
2026-05-06 20:27 36.23208 36.14939 5500 ft 172 kts 40°
2026-05-06 20:28 36.24117 36.15914 5499 ft 172 kts 39°
2026-05-06 20:28 36.25023 36.16890 5496 ft 172 kts 39°
2026-05-06 20:28 36.25921 36.17856 5496 ft 172 kts 40°
2026-05-06 20:28 36.26831 36.18832 5497 ft 172 kts 39°
2026-05-06 20:29 36.27743 36.19809 5498 ft 172 kts 40°
2026-05-06 20:29 36.28657 36.20792 5379 ft 179 kts 39°
2026-05-06 20:29 36.29614 36.21819 5210 ft 185 kts 39°
2026-05-06 20:29 36.30607 36.22886 5038 ft 189 kts 39°
2026-05-06 20:30 36.31606 36.23959 4867 ft 192 kts 40°
2026-05-06 20:30 36.33636 36.26151 4521 ft 195 kts 39°
2026-05-06 20:30 36.34657 36.27249 4347 ft 195 kts 39°
2026-05-06 20:31 36.35677 36.28351 4174 ft 196 kts 39°
2026-05-06 20:31 36.36766 36.29368 3993 ft 194 kts 30°
2026-05-06 20:31 36.37901 36.30256 3836 ft 193 kts 31°
2026-05-06 20:31 36.39029 36.31133 3806 ft 187 kts 31°
2026-05-06 20:32 36.40125 36.31984 3799 ft 182 kts 31°
2026-05-06 20:32 36.41179 36.32809 3797 ft 178 kts 31°
2026-05-06 20:32 36.42228 36.33625 3797 ft 176 kts 31°
2026-05-06 20:32 36.43251 36.34418 3798 ft 173 kts 31°
2026-05-06 20:33 36.44284 36.35221 3800 ft 174 kts 31°
2026-05-06 20:33 36.45315 36.36023 3799 ft 174 kts 31°
2026-05-06 20:33 36.46337 36.36820 3796 ft 175 kts 31°
2026-05-06 20:33 36.47377 36.37626 3795 ft 175 kts 31°
2026-05-06 20:34 36.48401 36.38424 3790 ft 173 kts 31°
2026-05-06 20:34 36.49397 36.39204 3782 ft 161 kts 30°
2026-05-06 20:34 36.50293 36.39903 3780 ft 144 kts 30°
2026-05-06 20:34 36.51098 36.40532 3778 ft 126 kts 30°
2026-05-06 20:35 36.51793 36.41073 3777 ft 110 kts 30°
2026-05-06 20:35 36.52408 36.41550 3799 ft 100 kts 30°
2026-05-06 20:35 36.53024 36.42028 3808 ft 110 kts 30°
2026-05-06 20:35 36.53560 36.42737 3803 ft 120 kts 67°
2026-05-06 20:36 36.53538 36.43733 3789 ft 113 kts 113°
2026-05-06 20:36 36.53009 36.44376 3784 ft 106 kts 158°
2026-05-06 20:36 36.52302 36.44411 3791 ft 100 kts 191°
2026-05-06 20:36 36.51645 36.44163 3753 ft 101 kts 213°
2026-05-06 20:37 36.50998 36.43745 3665 ft 106 kts 211°
2026-05-06 20:37 36.50351 36.43294 3572 ft 108 kts 213°
2026-05-06 20:37 36.49707 36.42787 3473 ft 109 kts 216°
2026-05-06 20:37 36.49076 36.42264 3367 ft 111 kts 207°
2026-05-06 20:38 36.48511 36.41645 3260 ft 108 kts 229°
2026-05-06 20:38 36.47982 36.40983 3163 ft 109 kts 226°
2026-05-06 20:38 36.47421 36.40351 3051 ft 106 kts 224°
2026-05-06 20:38 36.46867 36.39767 2921 ft 105 kts 222°
2026-05-06 20:39 36.46325 36.39191 2740 ft 99 kts 223°
2026-05-06 20:39 36.45787 36.38679 2560 ft 96 kts 221°
2026-05-06 20:39 36.45283 36.38159 2377 ft 94 kts 224°
2026-05-06 20:39 36.44769 36.37662 2193 ft 92 kts 219°
2026-05-06 20:40 36.44251 36.37183 2011 ft 92 kts 219°
2026-05-06 20:40 36.43755 36.36711 1852 ft 89 kts 223°
2026-05-06 20:40 36.43263 36.36246 1698 ft 88 kts 220°
2026-05-06 20:40 36.42788 36.35768 1572 ft 87 kts 221°
2026-05-06 20:41 36.42327 36.35306 1451 ft 85 kts 221°
2026-05-06 20:41 36.41877 36.34830 1330 ft 84 kts 221°
2026-05-06 20:41 36.41437 36.34366 1212 ft 82 kts 223°
2026-05-06 20:41 36.41004 36.33908 1103 ft 81 kts 223°
2026-05-06 20:42 36.40579 36.33470 992 ft 80 kts 220°
2026-05-06 20:42 36.40133 36.33058 874 ft 79 kts 219°
2026-05-06 20:42 36.39703 36.32630 769 ft 78 kts 217°
2026-05-06 20:42 36.39289 36.32190 678 ft 79 kts 221°
2026-05-06 20:43 36.38872 36.31752 612 ft 77 kts 224°
2026-05-06 20:43 36.38473 36.31305 530 ft 76 kts 221°
2026-05-06 20:43 36.38088 36.30866 463 ft 75 kts 223°
2026-05-06 20:43 36.37703 36.30432 388 ft 75 kts 223°
2026-05-06 20:44 36.37311 36.29985 303 ft 76 kts 222°
2026-05-06 20:44 36.36932 36.29557 270 ft 69 kts 223°
2026-05-06 20:44 36.36666 36.29237 269 ft 36 kts 232°
2026-05-06 20:44 36.36521 36.29069 269 ft 23 kts 219°
2026-05-06 20:45 36.36420 36.28957 269 ft 17 kts 223°
2026-05-06 20:45 36.36337 36.28859 269 ft 15 kts 224°
2026-05-06 20:45 36.36258 36.28764 269 ft 14 kts 222°
2026-05-06 20:45 36.36195 36.28693 269 ft 12 kts 222°
2026-05-06 20:46 36.36126 36.28616 269 ft 13 kts 222°
2026-05-06 20:46 36.36079 36.28514 269 ft 14 kts 286°
2026-05-06 20:46 36.36153 36.28408 269 ft 17 kts 310°
2026-05-06 20:46 36.36211 36.28284 269 ft 14 kts 256°
2026-05-06 20:47 36.36225 36.28211 269 ft 2 kts 281°
2026-05-06 20:47 36.36225 36.28200 269 ft 0 kts 262°